EW7084 Weather Reports


Display with metric or nautical units.
time (UTC)temp
F
wind
direction
speed
MPH
gust
MPH
rain 1hr
in
rain 24hr
in
rain mn
in
humidity
%
barometer
mb
20260904083100 70 47 0.0 0.0 0.00 0.87 0.07 93 1013.1
20260904081531 70 47 0.0 0.0 0.00 0.87 0.07 92 1012.7
20260904080028 70 47 0.0 0.0 0.00 0.87 0.07 93 1012.5
20260904074531 70 47 0.0 0.0 0.00 0.87 0.07 93 1012.2
20260904073026 71 47 0.0 0.0 0.00 0.87 0.07 92 1012.2
20260904071525 71 47 0.0 0.0 0.00 0.87 0.07 92 1012.3
20260904070044 71 47 0.0 0.0 0.00 0.87 0.07 92 1012.4
20260904064524 71 47 0.0 0.0 0.00 0.88 0.07 92 1012.3
20260904063027 71 47 0.0 0.0 0.00 0.88 0.07 92 1012.1
20260904061526 71 47 0.0 0.0 0.00 0.88 0.07 92 1012.3
20260904060019 71 47 0.0 0.0 0.00 0.88 0.07 92 1012.4
20260904054518 71 47 0.0 0.0 0.00 0.89 0.07 92 1012.4
20260904053034 72 47 0.0 0.0 0.00 0.89 0.07 92 1012.6
20260904051523 72 47 0.0 0.0 0.00 0.89 0.07 92 1012.7
20260904050012 72 47 0.0 0.0 0.06 0.89 0.07 91 1012.8
20260904044510 72 47 0.0 0.0 0.35 1.01 0.07 91 1012.9
20260904043008 73 47 0.0 0.0 0.71 1.01 0.07 91 1013.1
20260904041606 73 47 0.0 0.0 0.87 1.01 0.07 91 1012.9
20260904040005 73 39 0.0 0.0 0.80 0.94 0.00 91 1013.4
20260904034505 73 250 0.0 0.0 0.46 0.75 0.60 90 1013.2
20260904033003 73 184 0.0 0.0 0.16 0.45 0.30 89 1012.5
20260904031501 73 226 0.0 0.0 0.00 0.28 0.14 88 1012.6
20260904030001 74 226 0.0 0.0 0.00 0.28 0.14 88 1012.7
20260904024502 74 226 0.0 0.0 0.00 0.61 0.14 88 1012.8
20260904023001 74 226 0.0 0.0 0.00 0.61 0.14 87 1012.7
20260904021601 74 226 0.0 0.0 0.00 0.61 0.14 87 1012.9
20260904020100 74 226 0.0 0.0 0.00 0.61 0.14 87 1013.2
20260904014603 75 226 0.0 0.0 0.00 0.64 0.14 86 1013.3
20260904013058 75 226 0.0 0.0 0.00 0.64 0.14 86 1013.4
20260904011557 75 226 0.0 0.0 0.00 0.64 0.14 85 1013.4
20260904010057 76 226 0.0 0.0 0.00 0.64 0.14 84 1013.5
20260904004557 76 226 0.0 0.0 0.00 0.64 0.14 84 1013.3
20260904003056 77 226 0.0 0.0 0.00 0.64 0.14 83 1013.1
20260904001556 77 226 0.0 0.0 0.00 0.64 0.14 83 1013.0
20260904000106 78 226 0.0 0.0 0.00 0.64 0.14 81 1013.0
20260903234556 79 226 0.0 0.0 0.00 0.64 0.14 80 1012.9
20260903233054 80 226 0.0 0.0 0.00 0.64 0.14 79 1012.9
20260903231557 81 226 0.0 2.0 0.00 0.64 0.14 77 1013.0
20260903230054 82 226 0.0 0.0 0.00 0.64 0.14 76 1013.0
20260903224555 83 226 0.0 2.0 0.00 0.64 0.14 76 1012.6
20260903223055 83 226 0.0 0.0 0.00 0.64 0.14 75 1012.6
20260903221552 83 226 0.0 1.0 0.00 0.64 0.14 75 1012.4
20260903214605 85 226 0.0 2.0 0.00 0.64 0.14 69 1012.5
20260903213050 86 226 0.0 3.0 0.00 0.64 0.14 66 1012.6
20260903211553 86 249 0.0 4.0 0.00 0.64 0.14 66 1012.6
20260903210047 86 184 0.0 3.0 0.00 0.64 0.14 66 1012.6
20260903204543 85 285 0.0 4.0 0.00 0.64 0.14 68 1012.8
20260903203041 84 284 3.0 10.0 0.00 0.64 0.14 67 1013.0
20260903201545 85 301 3.0 9.0 0.00 0.64 0.14 66 1013.2
20260903200042 85 286 3.0 8.0 0.00 0.64 0.14 66 1013.3
20260903194540 85 261 3.0 8.0 0.00 0.64 0.14 66 1013.1
20260903193037 84 292 3.0 7.0 0.00 0.64 0.14 66 1013.0
20260903191534 84 286 3.0 9.0 0.00 0.64 0.14 68 1013.4
20260903190031 83 281 2.0 6.0 0.00 0.64 0.14 70 1013.6
20260903184528 82 190 1.0 4.0 0.00 0.64 0.14 72 1013.9
20260903183026 82 273 1.0 6.0 0.00 0.64 0.14 73 1014.0
20260903181524 82 273 1.0 4.0 0.00 0.64 0.14 71 1014.1
20260903180032 82 290 3.0 9.0 0.00 0.64 0.14 71 1014.2
20260903174521 81 19 0.0 4.0 0.00 0.64 0.14 73 1014.2
20260903173019 81 155 1.0 7.0 0.00 0.64 0.14 72 1014.4
20260903171514 80 299 2.0 7.0 0.00 0.64 0.14 74 1014.4
20260903170012 79 263 1.0 6.0 0.00 0.64 0.14 75 1014.6
20260903164512 79 174 1.0 5.0 0.00 0.64 0.14 78 1014.6
20260903163001 78 147 1.0 7.0 0.00 0.64 0.14 78 1014.7
20260903161559 78 145 3.0 7.0 0.00 0.64 0.14 79 1014.9
20260903160057 77 306 2.0 5.0 0.00 0.64 0.14 80 1015.0
20260903153106 75 178 0.0 3.0 0.00 0.67 0.14 86 1015.3
20260903151548 74 176 0.0 2.0 0.00 0.67 0.14 88 1015.3
20260903150059 72 176 1.0 4.0 0.00 0.67 0.14 89 1015.2
20260903144544 72 176 2.0 4.0 0.00 0.71 0.14 91 1015.4
20260903143052 71 177 0.0 4.0 0.00 0.71 0.14 91 1015.5
20260903141543 71 178 1.0 4.0 0.00 0.71 0.14 92 1015.5
20260903140037 70 178 2.0 4.0 0.00 0.71 0.14 92 1015.4
20260903134539 71 188 3.0 7.0 0.00 0.71 0.14 93 1015.4
20260903133036 71 161 1.0 5.0 0.00 0.71 0.14 94 1015.2
20260903131535 70 161 0.0 2.0 0.00 0.71 0.14 94 1015.2
20260903130033 70 161 0.0 2.0 0.00 0.71 0.14 94 1015.4
20260903124533 69 161 0.0 2.0 0.00 0.71 0.14 94 1015.4
20260903123030 68 161 2.0 5.0 0.00 0.71 0.14 94 1015.4
20260903121529 68 161 1.0 5.0 0.00 0.71 0.14 94 1015.2
20260903120033 67 161 2.0 4.0 0.00 0.71 0.14 94 1014.9
20260903114531 67 161 0.0 2.0 0.00 0.71 0.14 94 1015.0
20260903113030 67 161 0.0 0.0 0.00 0.71 0.14 94 1014.9
20260903111532 67 161 0.0 2.0 0.00 0.71 0.14 94 1014.6
20260903110027 67 161 0.0 2.0 0.00 0.71 0.14 94 1014.6
20260903104527 67 161 0.0 5.0 0.00 0.71 0.14 94 1014.5
20260903103025 67 161 1.0 5.0 0.00 0.71 0.14 94 1014.6
20260903101527 67 161 4.0 7.0 0.00 0.71 0.14 94 1014.8
20260903100023 66 146 0.0 2.0 0.00 0.71 0.14 94 1014.9
20260903094523 66 146 0.0 3.0 0.00 0.71 0.14 94 1015.1
20260903093032 66 146 0.0 3.0 0.00 0.71 0.14 94 1015.2
20260903091533 66 146 0.0 2.0 0.00 0.71 0.14 94 1015.3
20260903090025 66 146 0.0 2.0 0.00 0.71 0.14 94 1015.1
20260903084539 66 146 0.0 2.0 0.00 0.71 0.14 93 1014.7